owner,sensor,date,latitude,longitude,vertical_datum,sea_water_temperature,qcFlag
BP,ioos:station:wmo:42369:1,2023-01-01T00:19:00Z,27.1999,-90.2811,2.0,22.4,11111222
BP,ioos:station:wmo:42369:1,2023-01-01T00:39:00Z,27.1998,-90.2842,2.0,22.5,11111222
BP,ioos:station:wmo:42369:1,2023-01-01T00:59:00Z,27.1998,-90.2842,2.0,22.4,11111222
BP,ioos:station:wmo:42369:1,2023-01-01T01:19:00Z,27.2004,-90.2860,2.0,22.4,11111222
BP,ioos:station:wmo:42369:1,2023-01-01T01:39:00Z,27.2004,-90.2860,2.0,22.4,11111222
BP,ioos:station:wmo:42369:1,2023-01-01T01:59:00Z,27.2004,-90.2860,2.0,22.3,11111222
BP,ioos:station:wmo:42369:1,2023-01-01T02:19:00Z,27.2004,-90.2860,2.0,22.3,11111222
BP,ioos:station:wmo:42369:1,2023-01-01T02:39:00Z,27.2005,-90.2862,2.0,22.3,11111222
BP,ioos:station:wmo:42369:1,2023-01-01T02:59:00Z,27.2005,-90.2862,2.0,22.3,11111222
BP,ioos:station:wmo:42369:1,2023-01-01T03:19:00Z,27.2005,-90.2862,2.0,22.3,11111222
BP,ioos:station:wmo:42369:1,2023-01-01T03:39:00Z,27.2010,-90.2870,2.0,22.3,11111222
BP,ioos:station:wmo:42369:1,2023-01-01T03:59:00Z,27.2010,-90.2870,2.0,22.3,11111222
BP,ioos:station:wmo:42369:1,2023-01-01T04:19:00Z,27.2010,-90.2870,2.0,22.3,11111222
BP,ioos:station:wmo:42369:1,2023-01-01T04:39:00Z,27.2013,-90.2872,2.0,22.3,11111222
BP,ioos:station:wmo:42369:1,2023-01-01T04:59:00Z,27.2013,-90.2872,2.0,22.3,11111222
BP,ioos:station:wmo:42369:1,2023-01-01T05:19:00Z,27.2013,-90.2872,2.0,22.4,11111222
BP,ioos:station:wmo:42369:1,2023-01-01T05:39:00Z,27.2013,-90.2872,2.0,22.4,11111222
BP,ioos:station:wmo:42369:1,2023-01-01T05:59:00Z,27.2013,-90.2872,2.0,22.5,11111222
BP,ioos:station:wmo:42369:1,2023-01-01T06:19:00Z,27.2026,-90.2884,2.0,22.5,11111222
BP,ioos:station:wmo:42369:1,2023-01-01T06:39:00Z,27.2026,-90.2884,2.0,22.5,11111222
BP,ioos:station:wmo:42369:1,2023-01-01T06:59:00Z,27.2026,-90.2884,2.0,22.5,11111222
BP,ioos:station:wmo:42369:1,2023-01-01T07:19:00Z,27.2026,-90.2884,2.0,22.5,11111222
BP,ioos:station:wmo:42369:1,2023-01-01T07:39:00Z,27.2026,-90.2884,2.0,22.5,11111222
BP,ioos:station:wmo:42369:1,2023-01-01T07:59:00Z,27.2026,-90.2884,2.0,22.5,11111222
BP,ioos:station:wmo:42369:1,2023-01-01T08:19:00Z,27.2043,-90.2893,2.0,22.5,11111222
BP,ioos:station:wmo:42369:1,2023-01-01T08:39:00Z,27.2043,-90.2893,2.0,22.4,11111222
BP,ioos:station:wmo:42369:1,2023-01-01T08:59:00Z,27.2043,-90.2893,2.0,22.4,11111222
BP,ioos:station:wmo:42369:1,2023-01-01T09:19:00Z,27.2047,-90.2892,2.0,22.4,11111222
BP,ioos:station:wmo:42369:1,2023-01-01T09:39:00Z,27.2047,-90.2892,2.0,22.4,11111222
BP,ioos:station:wmo:42369:1,2023-01-01T09:59:00Z,27.2047,-90.2892,2.0,22.4,11111222
BP,ioos:station:wmo:42369:1,2023-01-01T10:19:00Z,27.2047,-90.2892,2.0,22.4,11111222
BP,ioos:station:wmo:42369:1,2023-01-01T10:39:00Z,27.2047,-90.2884,2.0,22.4,11111222
BP,ioos:station:wmo:42369:1,2023-01-01T10:59:00Z,27.2047,-90.2884,2.0,22.4,11111222
BP,ioos:station:wmo:42369:1,2023-01-01T11:19:00Z,27.2047,-90.2884,2.0,22.4,11111222
BP,ioos:station:wmo:42369:1,2023-01-01T11:39:00Z,27.2045,-90.2876,2.0,22.3,11111222
BP,ioos:station:wmo:42369:1,2023-01-01T11:59:00Z,27.2045,-90.2876,2.0,22.3,11111222
BP,ioos:station:wmo:42369:1,2023-01-01T12:19:00Z,27.2046,-90.2872,2.0,22.3,11111222
BP,ioos:station:wmo:42369:1,2023-01-01T12:39:00Z,27.2046,-90.2872,2.0,22.3,11111222
BP,ioos:station:wmo:42369:1,2023-01-01T12:59:00Z,27.2046,-90.2872,2.0,22.3,11111222
BP,ioos:station:wmo:42369:1,2023-01-01T13:19:00Z,27.2055,-90.2871,2.0,22.3,11111222
BP,ioos:station:wmo:42369:1,2023-01-01T13:39:00Z,27.2055,-90.2871,2.0,22.3,11111222
BP,ioos:station:wmo:42369:1,2023-01-01T13:59:00Z,27.2055,-90.2871,2.0,22.3,11111222
BP,ioos:station:wmo:42369:1,2023-01-01T14:19:00Z,27.2055,-90.2871,2.0,22.3,11111222
BP,ioos:station:wmo:42369:1,2023-01-01T14:39:00Z,27.2071,-90.2864,2.0,22.3,11111222
BP,ioos:station:wmo:42369:1,2023-01-01T14:59:00Z,27.2071,-90.2864,2.0,22.2,11111222
BP,ioos:station:wmo:42369:1,2023-01-01T15:19:00Z,27.2082,-90.2858,2.0,22.3,11111222
BP,ioos:station:wmo:42369:1,2023-01-01T15:39:00Z,27.2082,-90.2858,2.0,22.3,11111222
BP,ioos:station:wmo:42369:1,2023-01-01T15:59:00Z,27.2082,-90.2858,2.0,22.3,11111222
BP,ioos:station:wmo:42369:1,2023-01-01T16:19:00Z,27.2095,-90.2840,2.0,22.3,11111222
BP,ioos:station:wmo:42369:1,2023-01-01T16:39:00Z,27.2095,-90.2840,2.0,22.4,11111222
BP,ioos:station:wmo:42369:1,2023-01-01T16:59:00Z,27.2095,-90.2840,2.0,22.4,11111222
BP,ioos:station:wmo:42369:1,2023-01-01T17:19:00Z,27.2099,-90.2815,2.0,22.4,11111222
BP,ioos:station:wmo:42369:1,2023-01-01T17:39:00Z,27.2099,-90.2815,2.0,22.4,11111222
BP,ioos:station:wmo:42369:1,2023-01-01T17:59:00Z,27.2099,-90.2815,2.0,22.5,11111222
BP,ioos:station:wmo:42369:1,2023-01-01T18:19:00Z,27.2099,-90.2815,2.0,22.6,11111222
BP,ioos:station:wmo:42369:1,2023-01-01T18:39:00Z,27.2094,-90.2771,2.0,22.6,11111222
BP,ioos:station:wmo:42369:1,2023-01-01T18:59:00Z,27.2094,-90.2771,2.0,22.7,11111222
BP,ioos:station:wmo:42369:1,2023-01-01T19:19:00Z,27.2083,-90.2753,2.0,22.8,11111222
BP,ioos:station:wmo:42369:1,2023-01-01T19:39:00Z,27.2083,-90.2753,2.0,22.8,11111222
BP,ioos:station:wmo:42369:1,2023-01-01T19:59:00Z,27.2083,-90.2753,2.0,22.9,11111222
BP,ioos:station:wmo:42369:1,2023-01-01T20:19:00Z,27.2064,-90.2750,2.0,22.7,11111222
BP,ioos:station:wmo:42369:1,2023-01-01T20:39:00Z,27.2064,-90.2750,2.0,22.9,11111222
BP,ioos:station:wmo:42369:1,2023-01-01T20:59:00Z,27.2064,-90.2750,2.0,22.9,11111222
BP,ioos:station:wmo:42369:1,2023-01-01T21:19:00Z,27.2043,-90.2755,2.0,22.7,11111222
BP,ioos:station:wmo:42369:1,2023-01-01T21:39:00Z,27.2043,-90.2755,2.0,22.8,11111222
BP,ioos:station:wmo:42369:1,2023-01-01T21:59:00Z,27.2043,-90.2755,2.0,22.8,11111222
BP,ioos:station:wmo:42369:1,2023-01-01T22:19:00Z,27.2043,-90.2755,2.0,22.6,11111222
BP,ioos:station:wmo:42369:1,2023-01-01T22:39:00Z,27.2030,-90.2764,2.0,22.7,11111222
BP,ioos:station:wmo:42369:1,2023-01-01T22:59:00Z,27.2030,-90.2764,2.0,22.6,11111222
BP,ioos:station:wmo:42369:1,2023-01-01T23:19:00Z,27.2028,-90.2767,2.0,22.6,11111222
BP,ioos:station:wmo:42369:1,2023-01-01T23:39:00Z,27.2028,-90.2767,2.0,22.6,11111222
BP,ioos:station:wmo:42369:1,2023-01-01T23:59:00Z,27.2028,-90.2767,2.0,22.6,11111222
BP,ioos:station:wmo:42369:1,2023-01-02T00:19:00Z,27.2028,-90.2767,2.0,22.6,11111222
BP,ioos:station:wmo:42369:1,2023-01-02T00:39:00Z,27.2028,-90.2767,2.0,22.6,11111222
BP,ioos:station:wmo:42369:1,2023-01-02T00:59:00Z,27.2028,-90.2767,2.0,22.6,11111222
BP,ioos:station:wmo:42369:1,2023-01-02T01:19:00Z,27.2028,-90.2767,2.0,22.6,11111222
BP,ioos:station:wmo:42369:1,2023-01-02T01:39:00Z,27.2019,-90.2778,2.0,22.7,11111222
BP,ioos:station:wmo:42369:1,2023-01-02T01:59:00Z,27.2019,-90.2778,2.0,22.7,11111222
BP,ioos:station:wmo:42369:1,2023-01-02T02:19:00Z,27.2017,-90.2783,2.0,22.7,11111222
BP,ioos:station:wmo:42369:1,2023-01-02T02:39:00Z,27.2017,-90.2783,2.0,22.7,11111222
BP,ioos:station:wmo:42369:1,2023-01-02T02:59:00Z,27.2017,-90.2783,2.0,22.6,11111222
BP,ioos:station:wmo:42369:1,2023-01-02T03:19:00Z,27.2011,-90.2798,2.0,22.6,11111222
BP,ioos:station:wmo:42369:1,2023-01-02T03:39:00Z,27.2011,-90.2798,2.0,22.7,11111222
BP,ioos:station:wmo:42369:1,2023-01-02T03:59:00Z,27.2011,-90.2798,2.0,22.7,11111222
BP,ioos:station:wmo:42369:1,2023-01-02T04:19:00Z,27.2009,-90.2820,2.0,22.7,11111222
BP,ioos:station:wmo:42369:1,2023-01-02T04:39:00Z,27.2009,-90.2820,2.0,22.7,11111222
BP,ioos:station:wmo:42369:1,2023-01-02T04:59:00Z,27.2009,-90.2820,2.0,22.7,11111222
BP,ioos:station:wmo:42369:1,2023-01-02T05:19:00Z,27.2012,-90.2839,2.0,22.7,11111222
BP,ioos:station:wmo:42369:1,2023-01-02T05:39:00Z,27.2012,-90.2839,2.0,22.7,11111222
BP,ioos:station:wmo:42369:1,2023-01-02T05:59:00Z,27.2012,-90.2839,2.0,22.7,11111222
BP,ioos:station:wmo:42369:1,2023-01-02T06:19:00Z,27.2019,-90.2856,2.0,22.7,11111222
BP,ioos:station:wmo:42369:1,2023-01-02T06:39:00Z,27.2019,-90.2856,2.0,22.8,11111222
BP,ioos:station:wmo:42369:1,2023-01-02T06:59:00Z,27.2019,-90.2856,2.0,22.8,11111222
BP,ioos:station:wmo:42369:1,2023-01-02T07:19:00Z,27.2028,-90.2872,2.0,22.8,11111222
BP,ioos:station:wmo:42369:1,2023-01-02T07:39:00Z,27.2028,-90.2872,2.0,22.8,11111222
BP,ioos:station:wmo:42369:1,2023-01-02T07:59:00Z,27.2028,-90.2872,2.0,22.8,11111222
BP,ioos:station:wmo:42369:1,2023-01-02T08:19:00Z,27.2042,-90.2886,2.0,22.8,11111222
BP,ioos:station:wmo:42369:1,2023-01-02T08:39:00Z,27.2042,-90.2886,2.0,22.8,11111222
BP,ioos:station:wmo:42369:1,2023-01-02T08:59:00Z,27.2042,-90.2886,2.0,22.8,11111222
BP,ioos:station:wmo:42369:1,2023-01-02T09:19:00Z,27.2042,-90.2886,2.0,22.8,11111222
BP,ioos:station:wmo:42369:1,2023-01-02T09:39:00Z,27.2065,-90.2898,2.0,22.8,11111222
BP,ioos:station:wmo:42369:1,2023-01-02T09:59:00Z,27.2065,-90.2898,2.0,22.8,11111222
BP,ioos:station:wmo:42369:1,2023-01-02T10:19:00Z,27.2074,-90.2899,2.0,22.8,11111222
BP,ioos:station:wmo:42369:1,2023-01-02T10:39:00Z,27.2074,-90.2899,2.0,22.7,11111222
BP,ioos:station:wmo:42369:1,2023-01-02T10:59:00Z,27.2074,-90.2899,2.0,22.7,11111222
BP,ioos:station:wmo:42369:1,2023-01-02T11:19:00Z,27.2082,-90.2897,2.0,22.7,11111222
BP,ioos:station:wmo:42369:1,2023-01-02T11:39:00Z,27.2082,-90.2897,2.0,22.6,11111222
BP,ioos:station:wmo:42369:1,2023-01-02T11:59:00Z,27.2082,-90.2897,2.0,22.6,11111222
BP,ioos:station:wmo:42369:1,2023-01-02T12:19:00Z,27.2082,-90.2897,2.0,22.6,11111222
BP,ioos:station:wmo:42369:1,2023-01-02T12:39:00Z,27.2095,-90.2896,2.0,22.6,11111222
BP,ioos:station:wmo:42369:1,2023-01-02T12:59:00Z,27.2095,-90.2896,2.0,22.6,11111222
BP,ioos:station:wmo:42369:1,2023-01-02T13:19:00Z,27.2095,-90.2896,2.0,22.6,11111222
BP,ioos:station:wmo:42369:1,2023-01-02T13:39:00Z,27.2095,-90.2896,2.0,22.6,11111222
BP,ioos:station:wmo:42369:1,2023-01-02T13:59:00Z,27.2095,-90.2896,2.0,22.6,11111222
BP,ioos:station:wmo:42369:1,2023-01-02T14:19:00Z,27.2114,-90.2885,2.0,22.5,11111222
BP,ioos:station:wmo:42369:1,2023-01-02T14:39:00Z,27.2114,-90.2885,2.0,22.5,11111222
BP,ioos:station:wmo:42369:1,2023-01-02T14:59:00Z,27.2114,-90.2885,2.0,22.6,11111222
BP,ioos:station:wmo:42369:1,2023-01-02T15:19:00Z,27.2114,-90.2885,2.0,22.6,11111222
BP,ioos:station:wmo:42369:1,2023-01-02T15:39:00Z,27.2114,-90.2885,2.0,22.6,11111222
BP,ioos:station:wmo:42369:1,2023-01-02T15:59:00Z,27.2114,-90.2885,2.0,22.6,11111222
BP,ioos:station:wmo:42369:1,2023-01-02T16:19:00Z,27.2131,-90.2859,2.0,22.7,11111222
BP,ioos:station:wmo:42369:1,2023-01-02T16:39:00Z,27.2131,-90.2859,2.0,22.7,11111222
BP,ioos:station:wmo:42369:1,2023-01-02T16:59:00Z,27.2131,-90.2859,2.0,22.7,11111222
BP,ioos:station:wmo:42369:1,2023-01-02T17:19:00Z,27.2138,-90.2843,2.0,22.8,11111222
BP,ioos:station:wmo:42369:1,2023-01-02T17:39:00Z,27.2138,-90.2843,2.0,22.8,11111222
BP,ioos:station:wmo:42369:1,2023-01-02T17:59:00Z,27.2138,-90.2843,2.0,22.8,11111222
BP,ioos:station:wmo:42369:1,2023-01-02T18:19:00Z,27.2141,-90.2822,2.0,22.8,11111222
BP,ioos:station:wmo:42369:1,2023-01-02T18:39:00Z,27.2141,-90.2822,2.0,22.8,11111222
BP,ioos:station:wmo:42369:1,2023-01-02T18:59:00Z,27.2141,-90.2822,2.0,22.8,11111222
BP,ioos:station:wmo:42369:1,2023-01-02T19:19:00Z,27.2137,-90.2800,2.0,22.9,11111222
BP,ioos:station:wmo:42369:1,2023-01-02T19:39:00Z,27.2137,-90.2800,2.0,22.9,11111222
BP,ioos:station:wmo:42369:1,2023-01-02T19:59:00Z,27.2137,-90.2800,2.0,22.9,11111222
BP,ioos:station:wmo:42369:1,2023-01-02T20:19:00Z,27.2137,-90.2800,2.0,22.9,11111222
BP,ioos:station:wmo:42369:1,2023-01-02T20:39:00Z,27.2137,-90.2800,2.0,22.9,11111222
BP,ioos:station:wmo:42369:1,2023-01-02T20:59:00Z,27.2137,-90.2800,2.0,22.9,11111222
BP,ioos:station:wmo:42369:1,2023-01-02T21:19:00Z,27.2137,-90.2800,2.0,22.9,11111222
BP,ioos:station:wmo:42369:1,2023-01-02T21:39:00Z,27.2137,-90.2800,2.0,22.7,11111222
BP,ioos:station:wmo:42369:1,2023-01-02T21:59:00Z,27.2137,-90.2800,2.0,22.8,11111222
BP,ioos:station:wmo:42369:1,2023-01-02T22:19:00Z,27.2106,-90.2756,2.0,22.7,11111222
BP,ioos:station:wmo:42369:1,2023-01-02T22:39:00Z,27.2106,-90.2756,2.0,22.6,11111222
BP,ioos:station:wmo:42369:1,2023-01-02T22:59:00Z,27.2106,-90.2756,2.0,22.6,11111222
BP,ioos:station:wmo:42369:1,2023-01-02T23:19:00Z,27.2093,-90.2750,2.0,22.6,11111222
BP,ioos:station:wmo:42369:1,2023-01-02T23:39:00Z,27.2093,-90.2750,2.0,22.6,11111222
BP,ioos:station:wmo:42369:1,2023-01-02T23:59:00Z,27.2093,-90.2750,2.0,22.6,11111222
BP,ioos:station:wmo:42369:1,2023-01-03T00:19:00Z,27.2088,-90.2750,2.0,22.7,11111222
BP,ioos:station:wmo:42369:1,2023-01-03T00:39:00Z,27.2085,-90.2753,2.0,22.7,11111222
BP,ioos:station:wmo:42369:1,2023-01-03T00:59:00Z,27.2085,-90.2753,2.0,22.7,11111222
BP,ioos:station:wmo:42369:1,2023-01-03T01:19:00Z,27.2085,-90.2753,2.0,22.7,11111222
BP,ioos:station:wmo:42369:1,2023-01-03T01:39:00Z,27.2085,-90.2753,2.0,22.7,11111222
BP,ioos:station:wmo:42369:1,2023-01-03T01:59:00Z,27.2085,-90.2753,2.0,22.7,11111222
BP,ioos:station:wmo:42369:1,2023-01-03T02:19:00Z,27.2081,-90.2754,2.0,22.8,11111222
BP,ioos:station:wmo:42369:1,2023-01-03T02:39:00Z,27.2081,-90.2754,2.0,22.8,11111222
BP,ioos:station:wmo:42369:1,2023-01-03T02:59:00Z,27.2081,-90.2754,2.0,22.8,11111222
BP,ioos:station:wmo:42369:1,2023-01-03T03:19:00Z,27.2081,-90.2754,2.0,22.8,11111222
BP,ioos:station:wmo:42369:1,2023-01-03T03:39:00Z,27.2071,-90.2763,2.0,22.8,11111222
BP,ioos:station:wmo:42369:1,2023-01-03T03:59:00Z,27.2071,-90.2763,2.0,22.8,11111222
BP,ioos:station:wmo:42369:1,2023-01-03T04:19:00Z,27.2069,-90.2771,2.0,22.8,11111222
BP,ioos:station:wmo:42369:1,2023-01-03T04:39:00Z,27.2069,-90.2771,2.0,22.8,11111222
BP,ioos:station:wmo:42369:1,2023-01-03T04:59:00Z,27.2069,-90.2771,2.0,22.8,11111222
BP,ioos:station:wmo:42369:1,2023-01-03T05:19:00Z,27.2069,-90.2771,2.0,22.8,11111222
BP,ioos:station:wmo:42369:1,2023-01-03T05:39:00Z,27.2073,-90.2784,2.0,22.8,11111222
BP,ioos:station:wmo:42369:1,2023-01-03T05:59:00Z,27.2073,-90.2784,2.0,22.8,11111222
BP,ioos:station:wmo:42369:1,2023-01-03T06:19:00Z,27.2081,-90.2792,2.0,22.8,11111222
BP,ioos:station:wmo:42369:1,2023-01-03T06:39:00Z,27.2081,-90.2792,2.0,22.8,11111222
BP,ioos:station:wmo:42369:1,2023-01-03T06:59:00Z,27.2081,-90.2792,2.0,22.8,11111222
BP,ioos:station:wmo:42369:1,2023-01-03T07:19:00Z,27.2081,-90.2792,2.0,22.8,11111222
BP,ioos:station:wmo:42369:1,2023-01-03T07:39:00Z,27.2081,-90.2792,2.0,22.8,11111222
BP,ioos:station:wmo:42369:1,2023-01-03T07:59:00Z,27.2081,-90.2792,2.0,22.8,11111222
BP,ioos:station:wmo:42369:1,2023-01-03T08:19:00Z,27.2081,-90.2792,2.0,22.8,11111222
BP,ioos:station:wmo:42369:1,2023-01-03T08:39:00Z,27.2142,-90.2832,2.0,22.8,11111222
BP,ioos:station:wmo:42369:1,2023-01-03T08:59:00Z,27.2142,-90.2832,2.0,22.8,11111222
BP,ioos:station:wmo:42369:1,2023-01-03T09:19:00Z,27.2143,-90.2840,2.0,22.8,11111222
BP,ioos:station:wmo:42369:1,2023-01-03T09:39:00Z,27.2143,-90.2840,2.0,22.8,11111222
BP,ioos:station:wmo:42369:1,2023-01-03T09:59:00Z,27.2143,-90.2840,2.0,22.8,11111222
BP,ioos:station:wmo:42369:1,2023-01-03T10:19:00Z,27.2143,-90.2840,2.0,22.8,11111222
BP,ioos:station:wmo:42369:1,2023-01-03T10:39:00Z,27.2143,-90.2840,2.0,22.8,11111222
BP,ioos:station:wmo:42369:1,2023-01-03T10:59:00Z,27.2143,-90.2840,2.0,22.8,11111222
BP,ioos:station:wmo:42369:1,2023-01-03T11:19:00Z,27.2146,-90.2835,2.0,22.7,11111222
BP,ioos:station:wmo:42369:1,2023-01-03T11:39:00Z,27.2146,-90.2835,2.0,22.7,11111222
BP,ioos:station:wmo:42369:1,2023-01-03T11:59:00Z,27.2146,-90.2835,2.0,22.7,11111222
BP,ioos:station:wmo:42369:1,2023-01-03T12:19:00Z,27.2146,-90.2827,2.0,22.7,11111222
BP,ioos:station:wmo:42369:1,2023-01-03T12:39:00Z,27.2146,-90.2827,2.0,22.8,11111222
BP,ioos:station:wmo:42369:1,2023-01-03T12:59:00Z,27.2146,-90.2827,2.0,22.7,11111222
BP,ioos:station:wmo:42369:1,2023-01-03T13:19:00Z,27.2146,-90.2827,2.0,22.7,11111222
BP,ioos:station:wmo:42369:1,2023-01-03T13:39:00Z,27.2146,-90.2822,2.0,22.7,11111222
BP,ioos:station:wmo:42369:1,2023-01-03T13:59:00Z,27.2146,-90.2822,2.0,22.7,11111222
BP,ioos:station:wmo:42369:1,2023-01-03T14:19:00Z,27.2146,-90.2822,2.0,22.8,11111222
BP,ioos:station:wmo:42369:1,2023-01-03T14:39:00Z,27.2146,-90.2817,2.0,22.8,11111222
BP,ioos:station:wmo:42369:1,2023-01-03T14:59:00Z,27.2146,-90.2817,2.0,22.8,11111222
BP,ioos:station:wmo:42369:1,2023-01-03T15:19:00Z,27.2146,-90.2817,2.0,22.8,11111222
BP,ioos:station:wmo:42369:1,2023-01-03T15:39:00Z,27.2143,-90.2803,2.0,22.8,11111222
BP,ioos:station:wmo:42369:1,2023-01-03T15:59:00Z,27.2143,-90.2803,2.0,22.8,11111222
BP,ioos:station:wmo:42369:1,2023-01-03T16:19:00Z,27.2139,-90.2792,2.0,22.9,11111222
BP,ioos:station:wmo:42369:1,2023-01-03T16:39:00Z,27.2139,-90.2792,2.0,22.9,11111222
BP,ioos:station:wmo:42369:1,2023-01-03T16:59:00Z,27.2139,-90.2792,2.0,22.9,11111222
BP,ioos:station:wmo:42369:1,2023-01-03T17:19:00Z,27.2139,-90.2792,2.0,22.9,11111222
BP,ioos:station:wmo:42369:1,2023-01-03T17:39:00Z,27.2129,-90.2776,2.0,22.9,11111222
BP,ioos:station:wmo:42369:1,2023-01-03T17:59:00Z,27.2129,-90.2776,2.0,23.0,11111222
BP,ioos:station:wmo:42369:1,2023-01-03T18:19:00Z,27.2125,-90.2770,2.0,23.0,11111222
BP,ioos:station:wmo:42369:1,2023-01-03T18:39:00Z,27.2125,-90.2770,2.0,23.0,11111222
BP,ioos:station:wmo:42369:1,2023-01-03T18:59:00Z,27.2125,-90.2770,2.0,23.1,11111222
BP,ioos:station:wmo:42369:1,2023-01-03T19:19:00Z,27.2116,-90.2763,2.0,23.0,11111222
BP,ioos:station:wmo:42369:1,2023-01-03T19:39:00Z,27.2116,-90.2763,2.0,23.0,11111222
BP,ioos:station:wmo:42369:1,2023-01-03T19:59:00Z,27.2116,-90.2763,2.0,23.0,11111222
BP,ioos:station:wmo:42369:1,2023-01-03T20:19:00Z,27.2111,-90.2759,2.0,23.0,11111222
BP,ioos:station:wmo:42369:1,2023-01-03T20:39:00Z,27.2111,-90.2759,2.0,23.0,11111222
BP,ioos:station:wmo:42369:1,2023-01-03T20:59:00Z,27.2111,-90.2759,2.0,22.9,11111222
BP,ioos:station:wmo:42369:1,2023-01-03T21:19:00Z,27.2111,-90.2759,2.0,22.9,11111222
BP,ioos:station:wmo:42369:1,2023-01-03T21:39:00Z,27.2111,-90.2759,2.0,22.9,11111222
BP,ioos:station:wmo:42369:1,2023-01-03T21:59:00Z,27.2111,-90.2759,2.0,22.9,11111222
BP,ioos:station:wmo:42369:1,2023-01-03T22:19:00Z,27.2111,-90.2759,2.0,22.8,11111222
BP,ioos:station:wmo:42369:1,2023-01-03T22:39:00Z,27.2083,-90.2749,2.0,22.8,11111222
BP,ioos:station:wmo:42369:1,2023-01-03T22:59:00Z,27.2083,-90.2749,2.0,22.8,11111222
BP,ioos:station:wmo:42369:1,2023-01-03T23:19:00Z,27.2073,-90.2748,2.0,22.8,11111222
BP,ioos:station:wmo:42369:1,2023-01-03T23:39:00Z,27.2073,-90.2748,2.0,22.8,11111222
BP,ioos:station:wmo:42369:1,2023-01-03T23:59:00Z,27.2073,-90.2748,2.0,22.8,11111222
BP,ioos:station:wmo:42369:1,2023-01-04T00:19:00Z,27.2073,-90.2748,2.0,22.8,11111222
BP,ioos:station:wmo:42369:1,2023-01-04T00:39:00Z,27.2059,-90.2750,2.0,22.8,11111222
BP,ioos:station:wmo:42369:1,2023-01-04T00:59:00Z,27.2059,-90.2750,2.0,22.8,11111222
BP,ioos:station:wmo:42369:1,2023-01-04T01:19:00Z,27.2053,-90.2751,2.0,22.8,11111222
BP,ioos:station:wmo:42369:1,2023-01-04T01:39:00Z,27.2053,-90.2751,2.0,22.8,11111222
BP,ioos:station:wmo:42369:1,2023-01-04T01:59:00Z,27.2053,-90.2751,2.0,22.8,11111222
BP,ioos:station:wmo:42369:1,2023-01-04T02:19:00Z,27.2053,-90.2751,2.0,22.8,11111222
BP,ioos:station:wmo:42369:1,2023-01-04T02:39:00Z,27.2041,-90.2757,2.0,22.8,11111222
BP,ioos:station:wmo:42369:1,2023-01-04T02:59:00Z,27.2041,-90.2757,2.0,22.8,11111222
BP,ioos:station:wmo:42369:1,2023-01-04T03:19:00Z,27.2035,-90.2762,2.0,22.7,11111222
BP,ioos:station:wmo:42369:1,2023-01-04T03:39:00Z,27.2035,-90.2762,2.0,22.7,11111222
BP,ioos:station:wmo:42369:1,2023-01-04T03:59:00Z,27.2035,-90.2762,2.0,22.7,11111222
BP,ioos:station:wmo:42369:1,2023-01-04T04:19:00Z,27.2030,-90.2767,2.0,22.7,11111222
BP,ioos:station:wmo:42369:1,2023-01-04T04:39:00Z,27.2030,-90.2767,2.0,22.7,11111222
BP,ioos:station:wmo:42369:1,2023-01-04T04:59:00Z,27.2030,-90.2767,2.0,22.7,11111222
BP,ioos:station:wmo:42369:1,2023-01-04T05:19:00Z,27.2025,-90.2772,2.0,22.7,11111222
BP,ioos:station:wmo:42369:1,2023-01-04T05:39:00Z,27.2025,-90.2772,2.0,22.7,11111222
BP,ioos:station:wmo:42369:1,2023-01-04T05:59:00Z,27.2025,-90.2772,2.0,22.7,11111222
BP,ioos:station:wmo:42369:1,2023-01-04T06:19:00Z,27.2027,-90.2772,2.0,22.7,11111222
BP,ioos:station:wmo:42369:1,2023-01-04T06:39:00Z,27.2027,-90.2772,2.0,22.7,11111222
BP,ioos:station:wmo:42369:1,2023-01-04T06:59:00Z,27.2027,-90.2772,2.0,22.7,11111222
BP,ioos:station:wmo:42369:1,2023-01-04T07:19:00Z,27.2034,-90.2770,2.0,22.7,11111222
BP,ioos:station:wmo:42369:1,2023-01-04T07:39:00Z,27.2034,-90.2770,2.0,22.7,11111222
BP,ioos:station:wmo:42369:1,2023-01-04T07:59:00Z,27.2034,-90.2770,2.0,22.7,11111222
BP,ioos:station:wmo:42369:1,2023-01-04T08:19:00Z,27.2034,-90.2770,2.0,22.7,11111222
BP,ioos:station:wmo:42369:1,2023-01-04T08:39:00Z,27.2049,-90.2761,2.0,22.7,11111222
BP,ioos:station:wmo:42369:1,2023-01-04T08:59:00Z,27.2049,-90.2761,2.0,22.7,11111222
BP,ioos:station:wmo:42369:1,2023-01-04T09:19:00Z,27.2058,-90.2758,2.0,22.7,11111222
BP,ioos:station:wmo:42369:1,2023-01-04T09:39:00Z,27.2058,-90.2758,2.0,22.7,11111222
BP,ioos:station:wmo:42369:1,2023-01-04T09:59:00Z,27.2058,-90.2758,2.0,22.7,11111222
BP,ioos:station:wmo:42369:1,2023-01-04T10:19:00Z,27.2058,-90.2758,2.0,22.7,11111222
BP,ioos:station:wmo:42369:1,2023-01-04T10:39:00Z,27.2071,-90.2756,2.0,22.7,11111222
BP,ioos:station:wmo:42369:1,2023-01-04T10:59:00Z,27.2071,-90.2756,2.0,22.7,11111222
BP,ioos:station:wmo:42369:1,2023-01-04T11:19:00Z,27.2079,-90.2754,2.0,22.7,11111222
BP,ioos:station:wmo:42369:1,2023-01-04T11:39:00Z,27.2079,-90.2754,2.0,22.7,11111222
BP,ioos:station:wmo:42369:1,2023-01-04T11:59:00Z,27.2079,-90.2754,2.0,22.7,11111222
BP,ioos:station:wmo:42369:1,2023-01-04T12:19:00Z,27.2088,-90.2754,2.0,22.7,11111222
BP,ioos:station:wmo:42369:1,2023-01-04T12:39:00Z,27.2088,-90.2754,2.0,22.7,11111222
BP,ioos:station:wmo:42369:1,2023-01-04T12:59:00Z,27.2088,-90.2754,2.0,22.7,11111222
BP,ioos:station:wmo:42369:1,2023-01-04T13:19:00Z,27.2088,-90.2754,2.0,22.7,11111222
BP,ioos:station:wmo:42369:1,2023-01-04T13:39:00Z,27.2095,-90.2756,2.0,22.7,11111222
BP,ioos:station:wmo:42369:1,2023-01-04T13:59:00Z,27.2095,-90.2756,2.0,22.7,11111222
BP,ioos:station:wmo:42369:1,2023-01-04T14:19:00Z,27.2098,-90.2759,2.0,22.7,11111222
BP,ioos:station:wmo:42369:1,2023-01-04T14:39:00Z,27.2098,-90.2759,2.0,22.7,11111222
BP,ioos:station:wmo:42369:1,2023-01-04T14:59:00Z,27.2098,-90.2759,2.0,22.7,11111222
BP,ioos:station:wmo:42369:1,2023-01-04T15:19:00Z,27.2077,-90.2766,2.0,22.7,11111222
BP,ioos:station:wmo:42369:1,2023-01-04T15:39:00Z,27.2077,-90.2766,2.0,22.7,11111222
BP,ioos:station:wmo:42369:1,2023-01-04T15:59:00Z,27.2077,-90.2766,2.0,22.7,11111222
BP,ioos:station:wmo:42369:1,2023-01-04T16:19:00Z,27.2050,-90.2778,2.0,22.7,11111222
BP,ioos:station:wmo:42369:1,2023-01-04T16:39:00Z,27.2050,-90.2778,2.0,22.7,11111222
BP,ioos:station:wmo:42369:1,2023-01-04T16:59:00Z,27.2050,-90.2778,2.0,22.7,11111222
BP,ioos:station:wmo:42369:1,2023-01-04T17:19:00Z,27.2033,-90.2790,2.0,22.7,11111222
BP,ioos:station:wmo:42369:1,2023-01-04T17:39:00Z,27.2033,-90.2790,2.0,22.7,11111222
BP,ioos:station:wmo:42369:1,2023-01-04T17:59:00Z,27.2033,-90.2790,2.0,22.7,11111222
BP,ioos:station:wmo:42369:1,2023-01-04T18:19:00Z,27.2025,-90.2804,2.0,22.7,11111222
BP,ioos:station:wmo:42369:1,2023-01-04T18:39:00Z,27.2025,-90.2804,2.0,22.7,11111222
BP,ioos:station:wmo:42369:1,2023-01-04T18:59:00Z,27.2025,-90.2804,2.0,22.7,11111222
BP,ioos:station:wmo:42369:1,2023-01-04T19:19:00Z,27.2024,-90.2809,2.0,22.7,11111222
BP,ioos:station:wmo:42369:1,2023-01-04T19:39:00Z,27.2024,-90.2809,2.0,22.7,11111222
BP,ioos:station:wmo:42369:1,2023-01-04T19:59:00Z,27.2024,-90.2809,2.0,22.7,11111222
BP,ioos:station:wmo:42369:1,2023-01-04T20:19:00Z,27.2024,-90.2809,2.0,22.7,11111222
BP,ioos:station:wmo:42369:1,2023-01-04T20:39:00Z,27.2026,-90.2812,2.0,22.7,11111222
BP,ioos:station:wmo:42369:1,2023-01-04T20:59:00Z,27.2026,-90.2812,2.0,22.7,11111222
BP,ioos:station:wmo:42369:1,2023-01-04T21:19:00Z,27.2030,-90.2806,2.0,22.7,11111222
BP,ioos:station:wmo:42369:1,2023-01-04T21:39:00Z,27.2030,-90.2806,2.0,22.7,11111222